Home   Weather   Plymouth   Past weeks
Flag for United Kingdom

Past Weather in Plymouth, England, United Kingdom — Yesterday and Last 2 Weeks

Now
54 °F

Light rain. Overcast.


Feels Like: 53 °F
Forecast: 57 / 53 °F
Wind: 5 mph from East

Location: Plymouth

Current Time: Oct 15, 2019 at 12:01:52 am

Latest Report: Oct 14, 2019 at 11:00 pm


Visibility: 3 mi

Pressure: 29.59 "Hg

Humidity: 99%

Dew Point: 54 °F

Location of PlymouthLocation

Past Weather in Plymouth — Graph

°F

Plymouth Temperature Yesterday

Maximum temperature yesterday: 56 °F (at 3:00 pm)
Minimum temperature yesterday: 53 °F (at 9:00 pm)
Average temperature yesterday: 55 °F

High & Low Weather Summary for the Past Weeks

 TemperatureHumidityPressure
High63 °F (Oct 1, 4:00 pm)100% (Sep 30, 4:00 pm)30.22 "Hg (Sep 30, 4:00 pm)
Low46 °F (Oct 3, 12:00 am)45% (Oct 2, 2:00 pm)29.44 "Hg (Oct 1, 7:00 am)
Average56 °F90%29.82 "Hg
* Reported Sep 29 10:00 pm — Oct 14 10:00 pm, Plymouth. Weather by CustomWeather, © 2019

Note: Actual official high and low records may vary slightly from our data, if they occured in-between our weather recording intervals... More about our weather records

Advertising

Plymouth Weather History for the Previous 24 Hours

Scroll right to see more
 ConditionsComfort  
Time TempWeatherWind HumidityBarometerVisibility
10:00 pm
Mon, Oct 14
54 °FFog.5 mph99%29.59 "Hg2 mi
9:00 pm53 °FCool.2 mph97%29.59 "Hg5 mi
8:00 pm55 °FLight rain. Overcast.7 mph98%29.59 "Hg4 mi
7:00 pm55 °FFog.7 mph97%29.58 "Hg5 mi
6:00 pm56 °FCool.10 mph97%29.57 "Hg4 mi
5:00 pm56 °FCool.7 mph97%29.57 "Hg4 mi
4:00 pm56 °FRain. Cloudy.3 mph95%29.57 "Hg1 mi
3:00 pm56 °FLight rain. Cloudy.3 mph95%29.59 "Hg2 mi
2:00 pm56 °FLight rain. Cloudy.7 mph94%29.60 "Hg7 mi
1:00 pm56 °FLight rain. Cloudy.7 mph94%29.62 "Hg12 mi
12:00 pm56 °FLight rain. Cloudy.6 mph95%29.65 "Hg7 mi
11:00 am56 °FDrizzle. Cloudy.7 mph90%29.66 "Hg19 mi
10:00 am54 °FCool.6 mph93%29.68 "Hg17 mi
9:00 am54 °FCool.5 mph91%29.69 "Hg17 mi
8:00 am55 °FCool.7 mph90%29.68 "Hg16 mi
7:00 am56 °FCool.9 mph87%29.71 "Hg17 mi
6:00 am56 °FCool.9 mph89%29.72 "Hg16 mi
5:00 am54 °FCool.6 mph91%29.74 "Hg16 mi
4:00 am55 °FCool.7 mph91%29.75 "Hg14 mi
3:00 am56 °FCool.8 mph91%29.77 "Hg14 mi
2:00 am56 °FCool.8 mph94%29.78 "Hg12 mi
1:00 am55 °FCool.10 mph93%29.79 "Hg14 mi
12:00 am55 °FCool.10 mph92%29.79 "Hg13 mi
Weather by CustomWeather, © 2019

See weather overview